Location: Saluda
(35.2377°N, 82.3468°W)
Time: 03:14:16
(UTC+00:00)

Vanguard 2 Rocket - Pass Details

Date: 11 October 2022
Orbit: 555 x 3321 km, 32.9° (Epoch: 05 December)

Event Time Altitude Azimuth Distance (km) Brightness Sun altitude
Rises 04:34:14 0° 271° (W) 7,116 11.6 -60.2°
Reaches altitude 10° 04:39:25 10° 270° (W) 5,862 11.0 -60.5°
Enters shadow 04:44:36 23° 269° (W) 4,549 10.3 -60.9°
Maximum altitude 04:56:19 79° 188° (S) 2,102 - -61.4°
Drops below altitude 10° 05:05:49 10° 103° (ESE) 3,501 - -61.7°
Sets 05:08:09 0° 102° (ESE) 4,201 - -61.7°
